TimeEDT,TemperatureF,Dew PointF,Humidity,Sea Level PressureIn,VisibilityMPH,Wind Direction,Wind SpeedMPH,Gust SpeedMPH,PrecipitationIn,Events,Conditions,WindDirDegrees,DateUTC
12:15 AM,55.4,51.8,88,30.09,6.0,Calm,Calm,-,N/A,,Clear,0,2012-10-26 04:15:00
12:35 AM,55.4,51.8,88,30.09,1.2,Calm,Calm,-,N/A,,Clear,0,2012-10-26 04:35:00
1:15 AM,55.4,51.8,88,30.08,5.0,Calm,Calm,-,N/A,,Clear,0,2012-10-26 05:15:00
1:35 AM,53.6,51.8,94,30.08,3.0,Calm,Calm,-,N/A,,Clear,0,2012-10-26 05:35:00
2:15 AM,53.6,50.0,88,30.08,2.5,Calm,Calm,-,N/A,,Clear,0,2012-10-26 06:15:00
2:35 AM,53.6,51.8,94,30.07,0.5,Calm,Calm,-,N/A,,Unknown,0,2012-10-26 06:35:00
2:55 AM,51.8,48.2,88,30.07,0.2,Calm,Calm,-,N/A,,Unknown,0,2012-10-26 06:55:00
3:15 AM,53.6,51.8,94,30.07,4.0,Calm,Calm,-,N/A,,Clear,0,2012-10-26 07:15:00
3:35 AM,51.8,48.2,88,30.08,1.2,Calm,Calm,-,N/A,,Clear,0,2012-10-26 07:35:00
3:55 AM,51.8,48.2,88,30.07,2.0,Calm,Calm,-,N/A,,Clear,0,2012-10-26 07:55:00
4:15 AM,51.8,48.2,88,30.07,3.0,Calm,Calm,-,N/A,,Clear,0,2012-10-26 08:15:00
4:35 AM,51.8,50.0,94,30.06,3.0,Calm,Calm,-,N/A,,Clear,0,2012-10-26 08:35:00
4:55 AM,51.8,48.2,88,30.06,0.5,Calm,Calm,-,N/A,,Unknown,0,2012-10-26 08:55:00
5:15 AM,51.8,48.2,88,30.06,2.5,Calm,Calm,-,N/A,,Clear,0,2012-10-26 09:15:00
5:35 AM,50.0,48.2,94,30.06,6.0,Calm,Calm,-,N/A,,Clear,0,2012-10-26 09:35:00
5:55 AM,50.0,46.4,87,30.07,2.0,Calm,Calm,-,N/A,,Clear,0,2012-10-26 09:55:00
6:15 AM,50.0,48.2,94,30.07,3.0,Calm,Calm,-,N/A,,Clear,0,2012-10-26 10:15:00
6:35 AM,53.6,50.0,88,30.07,5.0,Calm,Calm,-,N/A,,Clear,0,2012-10-26 10:35:00
6:55 AM,51.8,50.0,94,30.07,4.0,Calm,Calm,-,N/A,,Clear,0,2012-10-26 10:55:00
7:15 AM,51.8,50.0,94,30.08,2.5,Calm,Calm,-,N/A,,Clear,0,2012-10-26 11:15:00
7:35 AM,51.8,48.2,88,30.08,0.5,Calm,Calm,-,N/A,,Unknown,0,2012-10-26 11:35:00
7:55 AM,50.0,48.2,94,30.08,0.2,Calm,Calm,-,N/A,,Overcast,0,2012-10-26 11:55:00
8:15 AM,51.8,48.2,88,30.08,0.5,Calm,Calm,-,N/A,,Overcast,0,2012-10-26 12:15:00
8:35 AM,55.4,53.6,94,30.09,2.5,NNE,5.8,-,N/A,,Partly Cloudy,30,2012-10-26 12:35:00
8:55 AM,55.4,53.6,94,30.10,2.0,NNE,6.9,-,N/A,,Overcast,30,2012-10-26 12:55:00
9:55 AM,55.4,53.6,94,30.12,0.5,NE,6.9,-,N/A,,Overcast,40,2012-10-26 13:55:00
10:15 AM,57.2,55.4,94,30.12,0.5,NE,6.9,-,N/A,,Overcast,40,2012-10-26 14:15:00
10:35 AM,57.2,55.4,94,30.12,0.5,NNE,5.8,-,N/A,,Overcast,30,2012-10-26 14:35:00
10:55 AM,57.2,55.4,94,30.11,0.8,NNE,5.8,-,N/A,,Overcast,30,2012-10-26 14:55:00
11:15 AM,57.2,55.4,94,30.11,0.8,NE,5.8,-,N/A,,Overcast,40,2012-10-26 15:15:00
11:35 AM,59.0,55.4,88,30.11,0.8,NE,4.6,-,N/A,,Overcast,40,2012-10-26 15:35:00
11:55 AM,59.0,57.2,94,30.10,4.0,NNE,3.5,-,N/A,,Overcast,30,2012-10-26 15:55:00
12:15 PM,60.8,57.2,88,30.09,7.0,NE,5.8,-,N/A,,Overcast,40,2012-10-26 16:15:00
12:35 PM,62.6,57.2,82,30.08,9.0,NE,6.9,-,N/A,,Overcast,40,2012-10-26 16:35:00
12:55 PM,62.6,57.2,82,30.07,10.0,NNE,5.8,-,N/A,,Overcast,20,2012-10-26 16:55:00
1:15 PM,62.6,57.2,82,30.06,10.0,NNE,6.9,-,N/A,,Overcast,30,2012-10-26 17:15:00
1:35 PM,62.6,57.2,82,30.04,10.0,NNE,6.9,-,N/A,,Overcast,30,2012-10-26 17:35:00
1:55 PM,62.6,57.2,82,30.03,10.0,NNE,4.6,-,N/A,,Overcast,20,2012-10-26 17:55:00
2:15 PM,64.4,57.2,77,30.02,10.0,NNE,4.6,-,N/A,,Overcast,20,2012-10-26 18:15:00
2:35 PM,64.4,57.2,77,30.02,10.0,NNE,4.6,-,N/A,,Overcast,20,2012-10-26 18:35:00
2:55 PM,64.4,57.2,77,30.01,10.0,NNE,6.9,-,N/A,,Overcast,30,2012-10-26 18:55:00
3:15 PM,64.4,57.2,77,30.00,10.0,NNE,5.8,-,N/A,,Overcast,30,2012-10-26 19:15:00
3:35 PM,66.2,59.0,78,29.99,10.0,NNE,5.8,-,N/A,,Overcast,30,2012-10-26 19:35:00
3:55 PM,66.2,59.0,78,29.99,10.0,North,5.8,-,N/A,,Overcast,10,2012-10-26 19:55:00
4:15 PM,66.2,60.8,83,29.99,10.0,NNE,5.8,-,N/A,,Overcast,20,2012-10-26 20:15:00
4:35 PM,66.2,59.0,78,29.98,10.0,NNE,5.8,-,N/A,,Overcast,20,2012-10-26 20:35:00
4:55 PM,66.2,59.0,78,29.98,10.0,NNE,4.6,-,N/A,,Overcast,20,2012-10-26 20:55:00
5:15 PM,66.2,59.0,78,29.97,10.0,NNE,5.8,-,N/A,,Overcast,30,2012-10-26 21:15:00
5:35 PM,66.2,59.0,78,29.97,10.0,NNE,4.6,-,N/A,,Overcast,20,2012-10-26 21:35:00
5:55 PM,66.2,59.0,78,29.97,10.0,NNE,3.5,-,N/A,,Scattered Clouds,30,2012-10-26 21:55:00
6:15 PM,64.4,59.0,83,29.97,10.0,NNE,3.5,-,N/A,,Clear,30,2012-10-26 22:15:00
6:35 PM,64.4,59.0,83,29.97,10.0,NNE,5.8,-,N/A,,Clear,30,2012-10-26 22:35:00
6:55 PM,64.4,59.0,83,29.97,10.0,NNE,4.6,-,N/A,,Clear,30,2012-10-26 22:55:00
7:15 PM,64.4,59.0,83,29.97,10.0,NNE,5.8,-,N/A,,Mostly Cloudy,30,2012-10-26 23:15:00
7:35 PM,64.4,59.0,83,29.97,10.0,NE,3.5,-,N/A,,Partly Cloudy,40,2012-10-26 23:35:00
7:55 PM,64.4,59.0,83,29.97,10.0,NNE,3.5,-,N/A,,Clear,20,2012-10-26 23:55:00
8:15 PM,64.4,59.0,83,29.97,10.0,North,3.5,-,N/A,,Clear,10,2012-10-27 00:15:00
8:35 PM,64.4,59.0,83,29.96,10.0,NNE,3.5,-,N/A,,Clear,20,2012-10-27 00:35:00
8:55 PM,64.4,59.0,83,29.96,10.0,NNE,4.6,-,N/A,,Mostly Cloudy,30,2012-10-27 00:55:00
9:15 PM,64.4,59.0,83,29.96,10.0,NE,9.2,-,N/A,,Overcast,40,2012-10-27 01:15:00
9:35 PM,66.2,59.0,78,29.96,10.0,NE,8.1,-,N/A,,Overcast,40,2012-10-27 01:35:00
9:55 PM,66.2,59.0,78,29.96,10.0,NE,9.2,-,N/A,,Overcast,50,2012-10-27 01:55:00
10:15 PM,66.2,59.0,78,29.95,10.0,NE,8.1,16.1,N/A,,Overcast,40,2012-10-27 02:15:00
10:35 PM,66.2,59.0,78,29.94,10.0,NE,10.4,-,N/A,,Overcast,40,2012-10-27 02:35:00
10:55 PM,66.2,59.0,78,29.94,10.0,NE,9.2,-,N/A,,Overcast,40,2012-10-27 02:55:00
11:15 PM,64.4,59.0,83,29.93,10.0,NE,6.9,-,N/A,,Scattered Clouds,40,2012-10-27 03:15:00
11:35 PM,64.4,59.0,83,29.92,10.0,NE,9.2,18.4,N/A,,Mostly Cloudy,40,2012-10-27 03:35:00
11:55 PM,64.4,59.0,83,29.91,10.0,NE,6.9,16.1,N/A,,Overcast,40,2012-10-27 03:55:00